{"data":{"norad_id":65870,"epoch":"2026-05-25T03:30:10.747872Z","epoch_age_seconds":52503,"freshness":"FRESH","line1":"1 65870U 25223S   26145.14595773  .00012134  00000+0  42106-3 0  9995","line2":"2 65870  53.1601 298.8872 0001044  85.5036 274.6084 15.30206521 35929","mean_motion":15.30206521,"eccentricity":0.0001044,"inclination_deg":53.1601,"raan_deg":298.8872,"arg_perigee_deg":85.5036,"mean_anomaly_deg":274.6084,"bstar":0.00042106,"rev_number":3592,"period_min":94.104944674981,"perigee_km":474.48011103456,"apogee_km":475.91108688122,"semimajor_km":6853.3325989579,"source":"CELESTRAK","updated_at":"2026-05-25T13:38:20.975480Z"}}